CAPE
2058 2046 1999 2052 2093 2016 2211 2321 2309 2341 2665 2500 2707 2897 3211 3566 3538 3443 3456 3563 3618 3552 3694 3716 3606 3564 3437 3505 3646 3474 3570 3732 3557 3469 3618 3173 3022 2772 2417 2163 1985 1763
2040 2060 2040 2082 2172 2270 2454 2325 2386 2369 2686 2828 2788 3037 3384 3516 3571 3508 3607 3600 3651 3540 3752 3663 3681 3659 3621 3438 3694 3507 3562 3658 3738 3390 3465 3385 3302 2980 2570 2552 2270 1912
2064 2033 2032 2020 1999 2052 1787 2096 2255 2272 2296 2387 2654 3009 3168 3206 3324 3505 3612 3619 3543 3336 3674 3666 3710 3742 3684 3684 3880 3721 3429 3787 3629 3303 3394 3516 3312 3126 2976 2360 2241 2048
2131 2064 1934 1807 1839 1919 1931 2089 2202 2182 2051 2279 2394 2446 2694 2675 3088 3382 3538 3398 3554 3545 3584 3524 3504 3540 3734 3757 3924 3674 3530 3888 3568 3696 3660 3562 3430 3152 2984 2591 2401 2242
2170 2119 1976 1910 1902 2064 2142 2137 1912 2005 1996 2078 2096 2363 2754 2915 3060 3032 3284 3454 3528 3566 3645 3568 3626 3507 3770 3784 3918 3713 3457 3642 3735 3956 3728 3674 3666 3299 3039 2732 2641 2578
2236 2207 2161 2097 2111 2218 2083 2028 1946 1919 1956 1936 2086 2111 2223 2678 2708 2717 2969 3023 3111 3150 3138 3352 3550 3462 3605 3754 3863 3685 3632 3350 3322 4039 3779 3656 3562 3331 3063 2911 2905 2684
2299 2300 2247 2109 2139 2155 2058 2054 2078 2044 1942 1940 2158 2022 2049 2236 2530 2632 2807 2836 2746 2996 2946 3231 3664 3546 3563 3719 3684 3401 3298 3428 3705 4030 3956 3704 3722 3717 3326 3138 3124 3020
2238 2200 2205 2166 2096 2068 2098 2099 2129 2176 2120 2086 2168 2166 2131 2038 2349 2460 2647 2709 2622 2963 3155 3298 3748 3826 3593 3595 3632 3535 3356 3074 3139 3294 3434 3826 3885 3886 3836 3451 3301 3286
2303 2310 2256 2192 2088 2071 1966 1932 2063 2137 2119 2148 1975 1943 2152 2046 2246 2261 2666 2808 2704 2818 3224 3292 3607 3685 3546 3640 3657 3714 3565 3373 3339 3485 3474 3535 3772 3944 3809 3756 3494 3392
2428 2327 2166 2122 2025 2011 1936 1886 1870 2019 2140 2048 1930 1860 2067 2208 2211 2282 2693 2853 2746 2852 3085 3138 3368 3398 3481 3591 3712 3748 3789 3813 3694 3586 3572 3563 3650 3828 3735 3753 3647 3578
2348 2263 2168 2110 1998 1978 1964 1880 1845 1881 2036 1932 1888 1802 1942 2207 2338 2400 2605 2796 2555 2687 2918 3027 3097 3225 3412 3289 3443 3620 3736 3705 3734 3764 3642 3475 3508 3653 3721 3879 3786 3612
2347 2237 2164 2081 2020 1991 1970 1929 1888 1896 1984 1988 1912 1911 1914 2044 2331 2327 2436 2718 2658 2655 2859 3049 3112 3212 3377 3342 3196 3446 3586 3545 3626 3734 3557 3578 3544 3470 3504 3653 3782 3726
2386 2328 2220 2074 2148 2062 2030 1997 1924 1898 1912 1996 1999 2007 1956 1978 2082 2328 2448 2590 2788 2768 2734 2926 3114 3112 3303 3443 3342 3356 3544 3623 3332 3530 3664 3642 3636 3528 3550 3722 3693 3661
2423 2403 2318 2231 2206 2278 2212 2089 2018 1980 2032 2010 2111 2107 2047 2006 2012 2131 2412 2494 2653 2714 2790 2832 3089 3111 3246 3385 3378 3326 3365 3560 3518 3407 3446 3619 3651 3699 3624 3530 3590 3622
2624 2515 2448 2394 2318 2460 2349 2219 2134 2142 2133 2109 2177 2180 2120 2108 2105 2058 2274 2441 2451 2702 2784 2813 2866 3028 3076 3224 3312 3375 3390 3296 3441 3482 3451 3502 3597 3599 3572 3580 3502 3469
2745 2623 2569 2611 2465 2574 2520 2336 2202 2212 2135 2170 2206 2196 2241 2248 2258 2234 2219 2377 2472 2701 2838 2830 2824 2906 2832 2492 2672 3152 3393 3167 3212 3446 3480 3396 3532 3635 3486 3493 3508 3469
2771 2699 2687 2648 2524 2489 2482 2453 2304 2262 2238 2322 2291 2278 2275 2404 2400 2358 2302 2304 2349 2500 2725 2680 2778 2834 2468 2162 2053 2114 2712 3218 3302 3420 3531 3496 3402 3690 3652 3372 3387 3496
2624 2644 2635 2628 2612 2545 2538 2478 2344 2315 2332 2420 2389 2378 2457 2454 2522 2449 2514 2320 2266 2358 2428 2583 2731 2476 2236 2008 1862 1817 1899 2700 3049 3232 3277 3390 3334 3279 3449 3481 3426 3381
2668 2715 2637 2572 2590 2550 2536 2577 2518 2475 2458 2450 2352 2372 2442 2551 2556 2468 2535 2520 2440 2548 2400 2436 2593 2378 2089 1928 1847 1778 1792 1910 2577 2995 3089 3296 3320 3359 3379 3516 3594 3578
2774 2660 2609 2608 2621 2593 2614 2564 2518 2517 2353 2240 2214 2335 2441 2494 2396 2540 2648 2805 2700 2683 2724 2599 2612 2408 2099 1907 1812 1808 1825 1830 2408 2717 2997 3070 3196 3344 3389 3469 3557 3583
2710 2688 2696 2677 2692 2672 2652 2598 2519 2522 2378 2224 2190 2317 2516 2576 2528 2546 2683 2742 2692 2658 2779 2801 2746 2448 2214 1951 1813 1783 1788 1831 2184 2534 2759 2933 3025 3140 3382 3404 3495 3542
2579 2691 2748 2763 2740 2651 2619 2601 2626 2638 2594 2390 2306 2320 2442 2448 2527 2443 2574 2668 2687 2652 2585 2693 2732 2344 2212 2022 1880 1804 1785 1776 1986 2559 2687 2790 2969 3101 3356 3497 3529 3515
2452 2612 2724 2730 2718 2664 2628 2622 2667 2736 2702 2618 2504 2426 2429 2459 2554 2506 2601 2650 2620 2607 2640 2667 2769 2624 2143 2026 1923 1861 1844 1834 1970 2456 2733 2900 3030 3222 3397 3411 3445 3580
2515 2591 2671 2676 2721 2699 2707 2601 2638 2698 2676 2659 2616 2478 2391 2540 2615 2624 2610 2660 2570 2632 2603 2778 2766 2674 2188 1958 1876 1848 1837 1843 2238 2548 2828 2941 3116 3257 3305 3368 3457 3083
2731 2790 2741 2673 2734 2680 2580 2657 2666 2742 2668 2680 2604 2522 2543 2686 2603 2664 2741 2792 2714 2650 2458 2486 2768 2644 2308 2066 1854 1783 1768 1996 2518 2638 2797 2976 3086 3242 3405 3432 3583 3276
2846 2889 2845 2665 2810 2748 2664 2774 2850 2732 2785 2798 2691 2588 2649 2709 2742 2734 2834 2909 2838 2740 2692 2496 2552 2846 2454 2153 1954 1822 1747 1891 2646 2644 2634 2822 3120 3048 3243 3369 3461 3604
Wind_Speed
6 8 8 9 10 9 8 7 7 5 5 4 5 5 5 7 8 10 13 14 15 16 16 17 17 18 19 20 19 19 17 15 13 11 10 11 12 12 12 11 10 10
6 7 10 10 11 11 10 8 8 6 5 4 5 5 6 8 11 13 15 17 16 17 16 15 15 16 16 17 18 19 19 18 16 12 10 10 10 10 10 10 9 8
7 8 8 8 9 8 7 8 8 8 6 4 5 7 9 11 14 15 16 16 16 15 13 12 12 12 13 13 14 15 16 16 17 15 12 11 10 9 10 9 8 7
8 8 9 8 10 10 9 10 9 9 7 6 7 9 11 14 15 15 15 13 13 12 10 10 10 9 10 10 11 11 12 13 14 13 13 12 10 9 8 7 7 7
9 11 12 12 12 12 11 10 8 8 6 7 9 11 13 15 15 15 13 11 11 9 7 7 7 8 7 8 9 9 9 10 10 10 11 12 11 9 8 7 6 7
13 13 13 14 14 13 12 10 10 8 7 8 9 12 13 14 14 14 12 10 9 8 6 5 6 7 7 7 8 8 8 8 8 7 8 10 11 10 8 6 6 7
13 14 13 15 13 12 12 12 12 10 9 10 12 12 13 14 13 12 11 9 8 6 5 4 4 5 5 6 6 7 8 8 7 7 7 8 7 9 9 8 6 7
13 15 15 16 13 13 13 14 13 12 11 12 12 13 14 14 12 11 10 8 6 4 3 3 4 5 6 6 6 7 7 6 7 8 8 8 6 7 7 7 6 6
16 17 17 14 12 13 12 13 13 13 13 12 14 15 15 15 13 11 9 6 4 2 2 3 4 4 5 6 6 7 7 6 5 6 6 6 6 6 5 5 6 6
17 18 16 14 12 13 12 13 14 14 13 13 15 16 16 15 13 11 8 5 2 1 2 3 4 4 5 6 6 7 6 7 6 5 4 4 4 4 4 3 4 5
16 17 16 14 12 14 13 13 14 14 14 13 15 16 16 16 14 11 8 5 3 3 3 5 5 5 5 5 5 5 6 5 5 5 4 3 3 3 3 2 3 4
14 15 15 13 13 14 14 15 15 15 15 15 14 15 16 15 12 11 8 5 5 5 5 6 6 6 6 6 5 4 4 4 4 5 4 3 3 2 2 1 2 3
14 14 16 15 16 17 18 18 17 16 15 15 15 15 15 15 12 10 9 7 7 7 7 7 7 7 7 6 4 3 4 4 4 5 6 5 4 3 2 2 2 2
13 15 17 18 20 20 20 19 18 18 17 16 16 15 14 13 12 10 10 10 9 8 8 8 8 8 7 6 5 5 5 6 6 6 6 7 7 6 4 3 3 2
16 18 20 21 22 22 21 20 19 19 19 18 17 16 17 14 13 12 11 10 9 10 9 9 8 7 6 7 7 7 7 7 7 7 7 7 7 7 6 5 4 3
19 20 21 22 22 22 21 20 20 20 19 18 17 16 17 17 15 13 11 11 11 11 11 10 8 7 8 11 11 9 9 8 8 8 7 7 7 7 6 5 5 3
20 20 22 22 22 23 22 20 20 21 20 19 18 18 17 17 16 13 12 13 12 12 11 9 8 7 10 14 14 13 10 9 10 9 9 9 8 7 6 6 6 5
19 20 21 21 23 22 22 21 21 21 21 20 20 19 19 18 16 14 15 14 14 11 9 8 6 8 13 15 15 15 13 10 9 9 10 10 9 7 6 7 6 5
22 21 21 22 22 22 23 23 22 21 21 21 19 20 21 18 17 16 16 15 13 11 8 6 7 11 15 16 16 17 15 12 9 8 9 9 9 7 6 6 7 6
23 21 21 21 23 23 23 21 20 20 20 20 21 21 20 18 17 16 16 15 12 10 9 8 7 13 17 17 17 17 17 15 10 9 8 7 6 6 6 5 5 5
22 21 21 22 23 23 22 20 19 21 21 21 21 20 20 19 18 17 16 14 12 10 9 9 9 14 18 18 18 18 17 16 11 10 8 6 4 2 3 4 5 6
21 21 21 22 22 21 19 18 19 20 21 22 22 21 21 20 19 17 14 13 11 9 8 8 9 16 18 19 19 18 19 16 13 11 9 7 5 3 3 5 5 5
19 20 21 20 20 19 17 17 18 19 20 22 21 20 20 18 16 15 15 12 10 9 8 9 11 17 19 20 20 20 20 14 15 13 11 7 5 4 5 4 4 5
20 19 20 19 18 16 16 16 17 18 18 20 18 17 16 16 16 15 14 12 9 8 9 11 12 18 22 21 21 23 20 16 16 15 11 8 6 5 6 6 4 3
21 20 19 17 16 15 16 16 17 17 18 19 17 17 16 17 16 15 13 13 10 9 12 11 13 18 24 22 23 23 19 16 16 14 11 7 8 7 7 8 7 8
21 19 18 16 16 16 17 17 18 18 17 17 16 17 16 15 15 14 12 13 13 12 13 13 13 15 23 24 24 23 22 17 15 12 8 8 10 9 9 8 9 9
Wind_Direction
174 170 181 196 198 197 196 197 193 189 192 188 178 173 167 166 150 135 125 118 108 101 97 93 91 91 92 91 90 91 92 92 97 105 108 112 119 119 124 123 120 118
168 172 188 199 203 206 199 198 200 197 202 196 174 171 170 159 142 133 123 116 108 100 95 88 84 82 83 87 86 86 88 87 86 96 105 108 123 132 132 133 134 139
180 178 189 198 200 202 187 188 190 195 193 163 156 161 160 149 139 132 125 116 110 102 94 87 78 72 71 75 79 82 84 84 83 83 87 100 119 137 141 145 150 143
188 184 190 193 197 200 196 191 192 197 185 174 153 156 155 149 141 132 127 118 113 106 97 84 75 67 59 59 64 75 78 81 83 82 79 86 95 114 131 146 145 148
202 196 197 202 204 203 201 191 184 193 176 162 164 167 162 154 145 136 131 125 118 107 97 78 65 60 49 46 46 60 65 73 74 78 82 79 79 84 106 130 134 129
209 206 207 211 211 208 196 187 186 184 174 166 167 167 159 154 147 137 132 123 118 105 89 67 49 43 36 33 32 44 50 57 61 61 74 79 80 73 80 97 116 119
220 218 217 215 212 204 192 189 191 186 178 170 180 169 165 158 149 141 137 127 116 106 81 58 25 18 12 15 21 37 47 49 49 47 59 76 77 72 64 66 88 112
222 220 220 218 215 205 196 195 193 190 186 182 177 173 170 160 155 151 146 134 118 99 70 42 359 352 351 348 4 16 34 38 43 51 62 67 68 68 58 51 60 89
226 224 226 226 222 209 199 197 195 191 190 180 173 173 173 167 165 158 159 151 132 114 26 3 342 334 332 336 347 3 13 19 16 22 37 53 56 58 57 42 42 58
229 227 232 231 225 210 203 200 199 197 192 181 177 175 177 177 173 167 169 172 167 252 314 315 317 316 317 329 345 356 4 9 6 8 24 36 56 63 51 26 27 41
233 231 232 233 227 215 208 207 205 202 196 185 182 176 176 184 185 179 177 193 221 271 289 300 310 317 322 336 345 352 360 359 354 350 3 27 38 70 80 17 0 20
236 231 232 234 231 223 216 211 210 207 202 196 188 182 181 185 189 189 194 215 240 259 277 291 299 310 321 334 356 354 342 340 327 324 331 342 355 6 64 52 334 359
238 234 230 230 230 227 220 215 213 211 206 200 196 188 187 188 188 192 208 226 245 260 275 287 298 314 318 325 338 342 324 315 311 306 309 308 320 335 325 317 321 334
236 231 227 226 227 229 226 221 216 214 210 205 202 196 190 190 192 201 216 230 244 259 270 279 295 310 315 312 312 317 313 310 308 305 307 307 309 312 311 302 304 318
229 226 224 226 228 231 231 226 221 218 216 212 209 202 198 196 199 206 221 234 247 259 271 284 296 302 290 289 296 311 317 323 321 320 315 306 302 303 299 293 288 284
228 224 225 227 229 231 232 229 223 220 218 216 212 207 205 205 206 212 225 242 253 263 275 284 288 275 283 307 301 297 312 315 315 316 314 305 297 289 287 283 282 270
227 225 225 226 227 228 229 228 224 219 217 215 213 212 211 215 217 222 231 239 252 264 278 281 275 263 296 302 312 317 311 311 315 313 310 308 304 292 278 269 261 267
227 227 226 226 227 228 229 228 223 220 218 218 218 219 219 220 224 229 233 240 246 262 274 272 262 273 292 301 307 315 313 308 308 308 306 307 306 300 275 260 255 252
230 229 229 228 229 229 227 226 223 219 220 220 220 221 223 225 227 232 238 246 253 261 262 257 245 276 295 303 305 308 315 313 305 306 306 306 306 300 278 260 252 244
232 231 230 230 230 230 228 226 223 219 218 219 219 223 226 228 233 239 243 252 256 253 245 240 246 272 298 302 304 307 311 307 307 314 310 308 306 291 269 258 254 234
235 233 231 231 232 233 230 227 224 220 221 220 223 227 232 235 239 245 248 253 254 249 243 245 250 278 293 303 305 308 310 303 301 308 305 305 301 281 247 242 230 222
238 235 233 233 235 234 233 229 227 228 228 226 225 228 232 237 241 245 251 254 253 250 247 254 260 288 296 302 306 307 306 289 293 301 303 300 291 262 232 230 222 211
238 237 235 236 238 237 236 235 233 233 233 231 232 234 238 243 246 247 245 243 245 247 253 253 254 279 296 299 303 306 293 285 290 291 293 302 291 261 234 226 221 216
233 235 236 236 237 239 239 237 237 235 238 237 239 240 240 242 243 240 239 236 238 244 254 254 256 273 293 297 303 305 300 288 285 289 295 292 276 258 244 238 235 260
231 232 234 235 235 237 238 242 242 242 241 241 241 241 240 239 241 239 237 236 236 241 250 258 255 267 289 297 303 304 300 283 286 287 292 287 269 259 262 255 249 261
228 231 231 232 233 235 235 237 238 240 244 244 243 241 240 239 241 239 240 237 240 245 248 260 262 262 279 297 299 303 309 287 283 290 291 279 269 269 265 265 265 254